ANS542 SAEZ-SAZS

Flight info

Callsign ANS542
Flight time 2h 4m
Altitude 30000
Route SAEZ/29 TORUL UT654 ORERA ORERA2Q
Aircraft B737/M-SDE1FGIRWYZ/SB1

Departure

Time 2026-05-03 20:24
Airport Ezeiza International Airport - Ministro Pistarini (SAEZ)

Arrival

Time 2026-05-03 22:28
Airport Teniente Luis Candelaria International Airport (SAZS)
Time Latitude Longitude Altitude Speed Heading
2026-05-03 20:15 -34.81462 -58.53363 71 ft 0 kts 117°
2026-05-03 20:15 -34.81463 -58.53362 71 ft 0 kts 117°
2026-05-03 20:16 -34.81468 -58.53351 69 ft 3 kts 118°
2026-05-03 20:16 -34.81484 -58.53314 72 ft 9 kts 119°
2026-05-03 20:16 -34.81524 -58.53227 75 ft 14 kts 122°
2026-05-03 20:16 -34.81605 -58.53130 81 ft 20 kts 154°
2026-05-03 20:17 -34.81764 -58.53072 75 ft 27 kts 163°
2026-05-03 20:17 -34.81941 -58.53009 83 ft 26 kts 164°
2026-05-03 20:17 -34.82048 -58.52904 79 ft 19 kts 103°
2026-05-03 20:17 -34.82083 -58.52736 69 ft 21 kts 104°
2026-05-03 20:18 -34.82118 -58.52562 75 ft 21 kts 103°
2026-05-03 20:18 -34.82154 -58.52389 67 ft 20 kts 105°
2026-05-03 20:18 -34.82185 -58.52224 70 ft 19 kts 103°
2026-05-03 20:18 -34.82216 -58.52067 72 ft 19 kts 104°
2026-05-03 20:19 -34.82245 -58.51927 74 ft 17 kts 104°
2026-05-03 20:19 -34.82276 -58.51803 69 ft 14 kts 127°
2026-05-03 20:19 -34.82340 -58.51791 72 ft 5 kts 193°
2026-05-03 20:19 -34.82381 -58.51802 74 ft 5 kts 191°
2026-05-03 20:20 -34.82412 -58.51809 73 ft 5 kts 191°
2026-05-03 20:20 -34.82447 -58.51819 76 ft 5 kts 194°
2026-05-03 20:20 -34.82481 -58.51831 85 ft 5 kts 197°
2026-05-03 20:20 -34.82515 -58.51845 81 ft 6 kts 201°
2026-05-03 20:21 -34.82524 -58.51892 81 ft 0 kts 283°
2026-05-03 20:21 -34.82524 -58.51893 81 ft 0 kts 283°
2026-05-03 20:23 -34.82519 -58.51918 80 ft 20 kts 283°
2026-05-03 20:23 -34.82426 -58.52434 68 ft 104 kts 282°
2026-05-03 20:24 -34.82212 -58.53533 160 ft 161 kts 287°
2026-05-03 20:24 -34.81950 -58.54908 1010 ft 158 kts 287°
2026-05-03 20:24 -34.81724 -58.56163 2185 ft 143 kts 288°
2026-05-03 20:24 -34.81489 -58.57424 2707 ft 168 kts 288°
2026-05-03 20:25 -34.81193 -58.58979 3122 ft 195 kts 286°
2026-05-03 20:25 -34.81113 -58.60651 3556 ft 220 kts 260°
2026-05-03 20:25 -34.81886 -58.62363 4116 ft 241 kts 236°
2026-05-03 20:25 -34.83055 -58.63975 4592 ft 262 kts 231°
2026-05-03 20:26 -34.83883 -58.65050 5131 ft 267 kts 231°
2026-05-03 20:26 -34.85195 -58.66813 6281 ft 265 kts 233°
2026-05-03 20:26 -34.86335 -58.68497 7336 ft 263 kts 235°
2026-05-03 20:26 -34.87506 -58.70272 8314 ft 267 kts 235°
2026-05-03 20:27 -34.88670 -58.72041 9281 ft 269 kts 236°
2026-05-03 20:27 -34.89849 -58.73829 10230 ft 272 kts 235°
2026-05-03 20:27 -34.91068 -58.75677 10734 ft 291 kts 235°
2026-05-03 20:27 -34.92396 -58.77693 10929 ft 318 kts 234°
2026-05-03 20:28 -34.93836 -58.79871 11267 ft 338 kts 234°
2026-05-03 20:28 -34.95334 -58.82122 11983 ft 343 kts 234°
2026-05-03 20:28 -34.95845 -58.82890 12268 ft 344 kts 234°
2026-05-03 20:28 -34.98490 -58.86856 13769 ft 347 kts 233°
2026-05-03 20:29 -35.00025 -58.89161 14496 ft 351 kts 233°
2026-05-03 20:29 -35.01554 -58.91459 15223 ft 353 kts 233°
2026-05-03 20:29 -35.03104 -58.93795 15958 ft 356 kts 233°
2026-05-03 20:29 -35.04659 -58.96138 16667 ft 359 kts 233°
2026-05-03 20:30 -35.06247 -58.98534 17367 ft 362 kts 233°
2026-05-03 20:30 -35.07839 -59.00939 18062 ft 365 kts 233°
2026-05-03 20:30 -35.09439 -59.03355 18673 ft 369 kts 233°
2026-05-03 20:30 -35.11105 -59.05875 19278 ft 371 kts 233°
2026-05-03 20:31 -35.12735 -59.08338 19859 ft 374 kts 233°
2026-05-03 20:31 -35.14382 -59.10824 20448 ft 377 kts 233°
2026-05-03 20:31 -35.16044 -59.13337 21044 ft 380 kts 233°
2026-05-03 20:31 -35.17711 -59.15861 21617 ft 382 kts 233°
2026-05-03 20:32 -35.19387 -59.18400 22177 ft 386 kts 233°
2026-05-03 20:32 -35.21077 -59.20966 22698 ft 389 kts 233°
2026-05-03 20:32 -35.22779 -59.23550 23238 ft 392 kts 233°
2026-05-03 20:32 -35.23951 -59.25331 23592 ft 394 kts 233°
2026-05-03 20:33 -35.25675 -59.27953 24050 ft 396 kts 233°
2026-05-03 20:33 -35.27406 -59.30583 24512 ft 398 kts 233°
2026-05-03 20:33 -35.29141 -59.33225 24983 ft 399 kts 233°
2026-05-03 20:33 -35.30906 -59.35913 25468 ft 400 kts 233°
2026-05-03 20:34 -35.32654 -59.38580 25915 ft 401 kts 233°
2026-05-03 20:34 -35.34398 -59.41243 26448 ft 400 kts 233°
2026-05-03 20:34 -35.36135 -59.43896 27106 ft 396 kts 233°
2026-05-03 20:34 -35.37805 -59.46561 27810 ft 391 kts 236°
2026-05-03 20:35 -35.39390 -59.49246 28512 ft 387 kts 236°
2026-05-03 20:35 -35.40940 -59.51929 29162 ft 384 kts 236°
2026-05-03 20:35 -35.42476 -59.54600 29787 ft 382 kts 236°
2026-05-03 20:35 -35.44011 -59.57263 30032 ft 385 kts 236°
2026-05-03 20:36 -35.45563 -59.59945 30046 ft 384 kts 236°
2026-05-03 20:36 -35.48647 -59.65250 30055 ft 381 kts 236°
2026-05-03 20:37 -35.51731 -59.70545 30053 ft 382 kts 236°
2026-05-03 20:37 -35.54823 -59.75856 30050 ft 382 kts 236°
2026-05-03 20:38 -35.57915 -59.81175 30044 ft 382 kts 237°
2026-05-03 20:38 -35.61002 -59.86492 30038 ft 382 kts 237°
2026-05-03 20:39 -35.64088 -59.91817 30038 ft 381 kts 237°
2026-05-03 20:39 -35.67163 -59.97131 30033 ft 381 kts 237°
2026-05-03 20:40 -35.70232 -60.02442 30032 ft 380 kts 237°
2026-05-03 20:40 -35.73295 -60.07751 30030 ft 380 kts 237°
2026-05-03 20:41 -35.76356 -60.13065 30030 ft 380 kts 237°
2026-05-03 20:41 -35.79417 -60.18389 30024 ft 380 kts 237°
2026-05-03 20:42 -35.82473 -60.23709 30019 ft 380 kts 237°
2026-05-03 20:42 -35.85526 -60.29035 30022 ft 380 kts 237°
2026-05-03 20:43 -35.88063 -60.33465 30015 ft 380 kts 237°
2026-05-03 20:43 -35.91113 -60.38799 30012 ft 380 kts 237°
2026-05-03 20:44 -35.94160 -60.44137 30011 ft 380 kts 237°
2026-05-03 20:44 -35.97226 -60.49516 30012 ft 381 kts 237°
2026-05-03 20:45 -36.00273 -60.54871 30013 ft 381 kts 237°
2026-05-03 20:45 -36.03315 -60.60224 30007 ft 381 kts 237°
2026-05-03 20:46 -36.06357 -60.65587 30005 ft 381 kts 237°
2026-05-03 20:46 -36.09396 -60.70954 30006 ft 381 kts 238°
2026-05-03 20:47 -36.12436 -60.76327 29999 ft 381 kts 238°
2026-05-03 20:47 -36.15468 -60.81721 29996 ft 382 kts 238°
2026-05-03 20:48 -36.18490 -60.87122 29994 ft 382 kts 238°
2026-05-03 20:48 -36.21515 -60.92535 29991 ft 382 kts 238°
2026-05-03 20:49 -36.24536 -60.97950 29988 ft 382 kts 238°
2026-05-03 20:49 -36.27562 -61.03380 29990 ft 382 kts 238°
2026-05-03 20:50 -36.30585 -61.08815 29985 ft 382 kts 238°
2026-05-03 20:50 -36.33602 -61.14247 29989 ft 382 kts 238°
2026-05-03 20:51 -36.36622 -61.19690 29983 ft 382 kts 238°
2026-05-03 20:51 -36.39635 -61.25133 29980 ft 382 kts 239°
2026-05-03 20:52 -36.42625 -61.30543 29975 ft 382 kts 239°
2026-05-03 20:52 -36.45634 -61.35998 29974 ft 382 kts 239°
2026-05-03 20:53 -36.48640 -61.41456 29969 ft 382 kts 239°
2026-05-03 20:53 -36.51646 -61.46923 29967 ft 383 kts 239°
2026-05-03 20:54 -36.54647 -61.52390 29964 ft 383 kts 239°
2026-05-03 20:54 -36.59147 -61.60605 29957 ft 383 kts 239°
2026-05-03 20:55 -36.62142 -61.66083 29955 ft 383 kts 239°
2026-05-03 20:55 -36.65156 -61.71604 29954 ft 382 kts 239°
2026-05-03 20:56 -36.68141 -61.77081 29949 ft 382 kts 239°
2026-05-03 20:56 -36.71101 -61.82522 29950 ft 381 kts 240°
2026-05-03 20:57 -36.74073 -61.87994 29951 ft 381 kts 240°
2026-05-03 20:57 -36.77036 -61.93457 29944 ft 380 kts 240°
2026-05-03 20:58 -36.79993 -61.98921 29940 ft 380 kts 240°
2026-05-03 20:58 -36.82968 -62.04422 29940 ft 379 kts 240°
2026-05-03 20:59 -36.85915 -62.09883 29940 ft 379 kts 240°
2026-05-03 20:59 -36.88861 -62.15351 29935 ft 379 kts 240°
2026-05-03 21:00 -36.91329 -62.19937 29936 ft 379 kts 240°
2026-05-03 21:00 -36.94748 -62.26304 29932 ft 379 kts 240°
2026-05-03 21:01 -36.97688 -62.31786 29933 ft 379 kts 240°
2026-05-03 21:01 -37.00624 -62.37272 29930 ft 379 kts 241°
2026-05-03 21:02 -37.03563 -62.42771 29927 ft 380 kts 241°
2026-05-03 21:02 -37.06499 -62.48274 29920 ft 380 kts 241°
2026-05-03 21:03 -37.09436 -62.53787 29927 ft 381 kts 241°
2026-05-03 21:03 -37.12375 -62.59315 29918 ft 381 kts 241°
2026-05-03 21:04 -37.15317 -62.64856 29918 ft 381 kts 241°
2026-05-03 21:04 -37.18254 -62.70396 29915 ft 381 kts 241°
2026-05-03 21:05 -37.21182 -62.75930 29913 ft 381 kts 241°
2026-05-03 21:05 -37.24108 -62.81467 29911 ft 380 kts 241°
2026-05-03 21:06 -37.27026 -62.87001 29914 ft 380 kts 241°
2026-05-03 21:06 -37.29935 -62.92528 29911 ft 379 kts 241°
2026-05-03 21:07 -37.32843 -62.98058 29903 ft 379 kts 241°
2026-05-03 21:07 -37.35745 -63.03583 29906 ft 379 kts 241°
2026-05-03 21:08 -37.38652 -63.09103 29903 ft 378 kts 241°
2026-05-03 21:08 -37.41554 -63.14621 29898 ft 378 kts 241°
2026-05-03 21:09 -37.44473 -63.20181 29901 ft 378 kts 241°
2026-05-03 21:09 -37.47365 -63.25701 29896 ft 377 kts 241°
2026-05-03 21:10 -37.50252 -63.31222 29899 ft 377 kts 241°
2026-05-03 21:10 -37.53131 -63.36736 29891 ft 376 kts 241°
2026-05-03 21:11 -37.56007 -63.42254 29887 ft 376 kts 241°
2026-05-03 21:11 -37.58876 -63.47768 29885 ft 376 kts 241°
2026-05-03 21:12 -37.61277 -63.52389 29891 ft 376 kts 241°
2026-05-03 21:12 -37.64120 -63.57868 29883 ft 376 kts 241°
2026-05-03 21:13 -37.66998 -63.63426 29878 ft 375 kts 241°
2026-05-03 21:13 -37.69870 -63.68981 29877 ft 375 kts 241°
2026-05-03 21:14 -37.72722 -63.74506 29863 ft 375 kts 241°
2026-05-03 21:14 -37.75564 -63.80020 29877 ft 374 kts 241°
2026-05-03 21:15 -37.78400 -63.85533 29863 ft 374 kts 242°
2026-05-03 21:15 -37.81223 -63.91041 29867 ft 373 kts 242°
2026-05-03 21:16 -37.84020 -63.96518 29868 ft 372 kts 242°
2026-05-03 21:16 -37.86842 -64.02017 29862 ft 372 kts 242°
2026-05-03 21:17 -37.89197 -64.06623 29862 ft 372 kts 242°
2026-05-03 21:17 -37.92455 -64.13020 29851 ft 371 kts 242°
2026-05-03 21:18 -37.95251 -64.18515 29856 ft 371 kts 242°
2026-05-03 21:18 -37.98053 -64.24011 29853 ft 370 kts 242°
2026-05-03 21:19 -38.00865 -64.29537 29853 ft 370 kts 242°
2026-05-03 21:19 -38.03647 -64.35028 29851 ft 370 kts 242°
2026-05-03 21:20 -38.06414 -64.40495 29845 ft 370 kts 242°
2026-05-03 21:20 -38.09214 -64.46038 29847 ft 370 kts 242°
2026-05-03 21:21 -38.11988 -64.51546 29844 ft 370 kts 242°
2026-05-03 21:21 -38.14754 -64.57058 29841 ft 370 kts 242°
2026-05-03 21:22 -38.17520 -64.62580 29842 ft 370 kts 242°
2026-05-03 21:22 -38.20286 -64.68112 29838 ft 370 kts 242°
2026-05-03 21:23 -38.23044 -64.73636 29844 ft 370 kts 242°
2026-05-03 21:23 -38.25801 -64.79169 29842 ft 369 kts 243°
2026-05-03 21:24 -38.28535 -64.84664 29839 ft 369 kts 243°
2026-05-03 21:24 -38.31281 -64.90191 29839 ft 369 kts 243°
2026-05-03 21:25 -38.34025 -64.95725 29835 ft 370 kts 243°
2026-05-03 21:25 -38.36792 -65.01314 29830 ft 370 kts 243°
2026-05-03 21:26 -38.39535 -65.06866 29835 ft 370 kts 243°
2026-05-03 21:26 -38.42276 -65.12422 29821 ft 370 kts 243°
2026-05-03 21:27 -38.44996 -65.17944 29827 ft 369 kts 243°
2026-05-03 21:27 -38.47745 -65.23542 29826 ft 370 kts 243°
2026-05-03 21:28 -38.50474 -65.29101 29825 ft 370 kts 243°
2026-05-03 21:28 -38.53204 -65.34670 29823 ft 370 kts 243°
2026-05-03 21:29 -38.55933 -65.40249 29828 ft 370 kts 243°
2026-05-03 21:29 -38.58660 -65.45833 29818 ft 370 kts 243°
2026-05-03 21:30 -38.61383 -65.51421 29815 ft 370 kts 243°
2026-05-03 21:30 -38.64107 -65.57018 29819 ft 370 kts 243°
2026-05-03 21:31 -38.66828 -65.62620 29814 ft 370 kts 243°
2026-05-03 21:31 -38.69544 -65.68222 29806 ft 370 kts 243°
2026-05-03 21:32 -38.72258 -65.73831 29809 ft 370 kts 243°
2026-05-03 21:32 -38.74953 -65.79407 29810 ft 370 kts 243°
2026-05-03 21:33 -38.77678 -65.85058 29813 ft 370 kts 244°
2026-05-03 21:33 -38.80386 -65.90682 29807 ft 370 kts 244°
2026-05-03 21:34 -38.83086 -65.96300 29802 ft 370 kts 244°
2026-05-03 21:34 -38.85785 -66.01926 29799 ft 370 kts 244°
2026-05-03 21:35 -38.88463 -66.07517 29801 ft 370 kts 244°
2026-05-03 21:35 -38.91154 -66.13147 29802 ft 370 kts 244°
2026-05-03 21:36 -38.93840 -66.18788 29803 ft 370 kts 244°
2026-05-03 21:36 -38.96522 -66.24438 29800 ft 370 kts 244°
2026-05-03 21:37 -38.99206 -66.30100 29796 ft 371 kts 244°
2026-05-03 21:37 -39.01888 -66.35767 29801 ft 371 kts 244°
2026-05-03 21:38 -39.04571 -66.41447 29801 ft 371 kts 244°
2026-05-03 21:38 -39.07251 -66.47131 29802 ft 371 kts 244°
2026-05-03 21:39 -39.09928 -66.52817 29797 ft 371 kts 244°
2026-05-03 21:39 -39.12567 -66.58434 29796 ft 371 kts 244°
2026-05-03 21:40 -39.15231 -66.64114 29797 ft 371 kts 244°
2026-05-03 21:40 -39.17464 -66.68884 29798 ft 371 kts 244°
2026-05-03 21:41 -39.20127 -66.74580 29797 ft 371 kts 244°
2026-05-03 21:41 -39.22788 -66.80282 29798 ft 371 kts 244°
2026-05-03 21:42 -39.25442 -66.85980 29796 ft 370 kts 244°
2026-05-03 21:42 -39.28090 -66.91675 29799 ft 370 kts 244°
2026-05-03 21:43 -39.30750 -66.97407 29806 ft 369 kts 244°
2026-05-03 21:43 -39.33386 -67.03096 29796 ft 369 kts 244°
2026-05-03 21:44 -39.36015 -67.08781 29793 ft 368 kts 244°
2026-05-03 21:44 -39.38634 -67.14455 29797 ft 367 kts 244°
2026-05-03 21:45 -39.41246 -67.20122 29797 ft 366 kts 244°
2026-05-03 21:45 -39.43850 -67.25785 29791 ft 366 kts 244°
2026-05-03 21:46 -39.46451 -67.31450 29799 ft 366 kts 244°
2026-05-03 21:46 -39.49045 -67.37112 29793 ft 366 kts 244°
2026-05-03 21:47 -39.51638 -67.42785 29783 ft 366 kts 244°
2026-05-03 21:47 -39.54229 -67.48462 29786 ft 365 kts 244°
2026-05-03 21:48 -39.56834 -67.54172 29786 ft 365 kts 244°
2026-05-03 21:48 -39.59412 -67.59837 29783 ft 365 kts 244°
2026-05-03 21:49 -39.61986 -67.65503 29781 ft 364 kts 244°
2026-05-03 21:49 -39.64557 -67.71176 29784 ft 364 kts 244°
2026-05-03 21:50 -39.67140 -67.76884 29777 ft 364 kts 244°
2026-05-03 21:50 -39.69706 -67.82565 29780 ft 364 kts 244°
2026-05-03 21:51 -39.72263 -67.88238 29775 ft 364 kts 244°
2026-05-03 21:51 -39.74837 -67.93957 29776 ft 364 kts 244°
2026-05-03 21:52 -39.77375 -67.99608 29772 ft 364 kts 244°
2026-05-03 21:52 -39.79943 -68.05335 29774 ft 364 kts 244°
2026-05-03 21:53 -39.82611 -68.11006 29777 ft 366 kts 241°
2026-05-03 21:53 -39.85450 -68.16553 29779 ft 366 kts 241°
2026-05-03 21:54 -39.88268 -68.22042 29776 ft 366 kts 241°
2026-05-03 21:54 -39.91076 -68.27557 29784 ft 366 kts 241°
2026-05-03 21:55 -39.93944 -68.33221 29777 ft 366 kts 241°
2026-05-03 21:55 -39.96793 -68.38865 29777 ft 365 kts 242°
2026-05-03 21:56 -39.99166 -68.43576 29771 ft 364 kts 242°
2026-05-03 21:56 -40.01953 -68.49118 29780 ft 363 kts 242°
2026-05-03 21:57 -40.04714 -68.54618 29781 ft 362 kts 242°
2026-05-03 21:57 -40.07501 -68.60180 29779 ft 361 kts 242°
2026-05-03 21:58 -40.10385 -68.65946 29778 ft 361 kts 242°
2026-05-03 21:58 -40.13273 -68.71732 29784 ft 360 kts 242°
2026-05-03 21:59 -40.15583 -68.76366 29785 ft 360 kts 242°
2026-05-03 21:59 -40.18388 -68.82002 29786 ft 360 kts 241°
2026-05-03 22:00 -40.21336 -68.87938 29790 ft 359 kts 241°
2026-05-03 22:00 -40.23989 -68.93289 29782 ft 359 kts 241°
2026-05-03 22:01 -40.26719 -68.98804 29785 ft 358 kts 241°
2026-05-03 22:01 -40.29026 -69.03473 29245 ft 360 kts 240°
2026-05-03 22:02 -40.30504 -69.06470 29851 ft 362 kts 241°
2026-05-03 22:02 -40.31996 -69.09496 29808 ft 358 kts 241°
2026-05-03 22:02 -40.34761 -69.15105 29779 ft 355 kts 241°
2026-05-03 22:03 -40.37040 -69.19736 29776 ft 355 kts 241°
2026-05-03 22:03 -40.39786 -69.25316 29779 ft 357 kts 241°
2026-05-03 22:04 -40.42552 -69.30947 29783 ft 360 kts 241°
2026-05-03 22:04 -40.45287 -69.36526 29780 ft 362 kts 241°
2026-05-03 22:05 -40.48103 -69.42278 29788 ft 362 kts 241°
2026-05-03 22:05 -40.50908 -69.48021 29773 ft 360 kts 241°
2026-05-03 22:06 -40.53608 -69.53557 29785 ft 358 kts 241°
2026-05-03 22:06 -40.56249 -69.58986 29776 ft 343 kts 241°
2026-05-03 22:07 -40.58796 -69.64248 29793 ft 341 kts 242°
2026-05-03 22:07 -40.60074 -69.66890 29453 ft 342 kts 241°
2026-05-03 22:07 -40.61356 -69.69534 29013 ft 338 kts 241°
2026-05-03 22:08 -40.62605 -69.72110 28608 ft 331 kts 241°
2026-05-03 22:08 -40.63835 -69.74651 28151 ft 326 kts 241°
2026-05-03 22:08 -40.65064 -69.77192 27641 ft 323 kts 242°
2026-05-03 22:08 -40.66266 -69.79678 27179 ft 319 kts 242°
2026-05-03 22:09 -40.67101 -69.81408 26842 ft 317 kts 242°
2026-05-03 22:09 -40.68279 -69.83850 26377 ft 315 kts 242°
2026-05-03 22:09 -40.69465 -69.86310 25911 ft 312 kts 242°
2026-05-03 22:10 -40.71828 -69.91218 24984 ft 308 kts 242°
2026-05-03 22:10 -40.72982 -69.93617 24533 ft 307 kts 242°
2026-05-03 22:10 -40.74145 -69.96037 24076 ft 306 kts 242°
2026-05-03 22:10 -40.75284 -69.98410 23627 ft 305 kts 242°
2026-05-03 22:11 -40.76421 -70.00778 23120 ft 305 kts 242°
2026-05-03 22:11 -40.77538 -70.03103 22615 ft 304 kts 242°
2026-05-03 22:11 -40.78696 -70.05515 22118 ft 301 kts 242°
2026-05-03 22:11 -40.79809 -70.07835 21672 ft 298 kts 242°
2026-05-03 22:12 -40.80900 -70.10115 21220 ft 296 kts 242°
2026-05-03 22:12 -40.82043 -70.12505 20751 ft 295 kts 242°
2026-05-03 22:12 -40.83136 -70.14793 20306 ft 293 kts 242°
2026-05-03 22:12 -40.84232 -70.17090 19846 ft 292 kts 242°
2026-05-03 22:13 -40.85318 -70.19367 19403 ft 292 kts 242°
2026-05-03 22:13 -40.86399 -70.21634 18959 ft 291 kts 242°
2026-05-03 22:13 -40.87481 -70.23905 18508 ft 291 kts 242°
2026-05-03 22:13 -40.88561 -70.26175 18022 ft 292 kts 242°
2026-05-03 22:14 -40.89647 -70.28458 17512 ft 291 kts 242°
2026-05-03 22:14 -40.90719 -70.30713 17042 ft 290 kts 242°
2026-05-03 22:14 -40.91790 -70.32967 16569 ft 288 kts 242°
2026-05-03 22:14 -40.92854 -70.35208 16103 ft 287 kts 242°
2026-05-03 22:15 -40.93915 -70.37442 15661 ft 286 kts 242°
2026-05-03 22:15 -40.94968 -70.39664 15207 ft 285 kts 242°
2026-05-03 22:15 -40.96034 -70.41916 14744 ft 283 kts 242°
2026-05-03 22:15 -40.97091 -70.44150 14284 ft 282 kts 242°
2026-05-03 22:16 -40.98235 -70.46282 13724 ft 288 kts 236°
2026-05-03 22:16 -40.99538 -70.48355 13182 ft 290 kts 235°
2026-05-03 22:16 -41.00836 -70.50390 12731 ft 287 kts 235°
2026-05-03 22:16 -41.02115 -70.52423 12278 ft 286 kts 236°
2026-05-03 22:17 -41.03391 -70.54472 11836 ft 284 kts 236°
2026-05-03 22:17 -41.04639 -70.56486 11394 ft 282 kts 236°
2026-05-03 22:17 -41.05874 -70.58487 10965 ft 279 kts 237°
2026-05-03 22:17 -41.06683 -70.59801 10662 ft 278 kts 237°
2026-05-03 22:18 -41.07905 -70.61787 10252 ft 277 kts 237°
2026-05-03 22:18 -41.09126 -70.63770 10004 ft 269 kts 237°
2026-05-03 22:18 -41.10290 -70.65657 9854 ft 259 kts 237°
2026-05-03 22:18 -41.11412 -70.67481 9521 ft 254 kts 238°
2026-05-03 22:19 -41.12501 -70.69256 9251 ft 249 kts 238°
2026-05-03 22:19 -41.13569 -70.70992 9158 ft 237 kts 238°
2026-05-03 22:19 -41.14588 -70.72653 9049 ft 227 kts 239°
2026-05-03 22:19 -41.15565 -70.74241 8941 ft 217 kts 239°
2026-05-03 22:20 -41.16492 -70.75753 8863 ft 206 kts 239°
2026-05-03 22:20 -41.17382 -70.77199 8866 ft 194 kts 240°
2026-05-03 22:20 -41.18221 -70.78568 8849 ft 188 kts 240°
2026-05-03 22:20 -41.19063 -70.79953 8573 ft 197 kts 240°
2026-05-03 22:21 -41.19927 -70.81376 8303 ft 200 kts 240°
2026-05-03 22:21 -41.20814 -70.82826 8076 ft 200 kts 239°
2026-05-03 22:21 -41.21704 -70.84283 7782 ft 200 kts 239°
2026-05-03 22:21 -41.22569 -70.85696 7464 ft 194 kts 240°
2026-05-03 22:22 -41.23391 -70.87074 7256 ft 187 kts 248°
2026-05-03 22:22 -41.23591 -70.88722 6927 ft 175 kts 283°
2026-05-03 22:22 -41.23361 -70.90339 6603 ft 179 kts 281°
2026-05-03 22:22 -41.23074 -70.91932 6372 ft 176 kts 286°
2026-05-03 22:23 -41.22721 -70.93444 6173 ft 166 kts 287°
2026-05-03 22:23 -41.22339 -70.94850 5941 ft 157 kts 290°
2026-05-03 22:23 -41.21918 -70.96170 5722 ft 151 kts 292°
2026-05-03 22:23 -41.21484 -70.97450 5519 ft 152 kts 293°
2026-05-03 22:24 -41.21042 -70.98729 5337 ft 151 kts 294°
2026-05-03 22:24 -41.20606 -70.99983 5138 ft 142 kts 294°
2026-05-03 22:24 -41.20195 -71.01163 4946 ft 135 kts 293°
2026-05-03 22:24 -41.19811 -71.02261 4737 ft 128 kts 294°
2026-05-03 22:25 -41.19437 -71.03338 4638 ft 125 kts 292°
2026-05-03 22:25 -41.19067 -71.04405 4435 ft 127 kts 293°
2026-05-03 22:25 -41.18692 -71.05479 4232 ft 123 kts 292°
2026-05-03 22:25 -41.18322 -71.06542 4095 ft 128 kts 292°
2026-05-03 22:26 -41.17940 -71.07644 3900 ft 127 kts 293°
2026-05-03 22:26 -41.17582 -71.08671 3738 ft 118 kts 292°
2026-05-03 22:26 -41.17238 -71.09662 3576 ft 118 kts 293°
2026-05-03 22:26 -41.16895 -71.10651 3435 ft 119 kts 293°
2026-05-03 22:27 -41.16547 -71.11652 3268 ft 120 kts 293°
2026-05-03 22:27 -41.16188 -71.12686 3100 ft 119 kts 293°
2026-05-03 22:27 -41.15841 -71.13666 2921 ft 114 kts 290°
2026-05-03 22:27 -41.15619 -71.14316 2812 ft 109 kts 294°
2026-05-03 22:28 -41.15321 -71.15165 2752 ft 87 kts 294°
2026-05-03 22:28 -41.15157 -71.15641 2749 ft 26 kts 295°
2026-05-03 22:28 -41.15092 -71.15827 2750 ft 22 kts 296°
2026-05-03 22:28 -41.15027 -71.16005 2752 ft 21 kts 294°
2026-05-03 22:29 -41.14969 -71.16181 2753 ft 20 kts 295°
2026-05-03 22:29 -41.14894 -71.16319 2753 ft 18 kts 338°
2026-05-03 22:29 -41.14799 -71.16282 2749 ft 11 kts 25°
2026-05-03 22:29 -41.14742 -71.16239 2748 ft 8 kts 34°
2026-05-03 22:30 -41.14723 -71.16208 2748 ft 3 kts 54°
2026-05-03 22:30 -41.14711 -71.16186 2749 ft 3 kts 56°
2026-05-03 22:30 -41.14703 -71.16169 2749 ft 1 kts 58°
2026-05-03 22:30 -41.14703 -71.16168 2749 ft 0 kts 58°
2026-05-03 22:31 -41.14700 -71.16163 2749 ft 1 kts 58°
2026-05-03 22:31 -41.14697 -71.16155 2748 ft 0 kts 58°